This demonstration page uses our WeatherBlox Daily Observations layout. Learn more.

Left ArrowRight Arrow

38.83388, -104.82136

Hourly Observations for January 12, 2021

Temp ( °F °C ) Dew Point ( °F °C ) Humidity (%) Winds ( mph kmh ) Pressure ( in mb ) Visibility ( mi km ) Precip ( " mm )
12:58 am 00:58 Clear 29 -1.4 -3 -19.2 25 25 Calm 30.22 1023 10 16 0.00 0.00
1:58 am 01:58 Clear 30 -1.3 -1 -18.4 26 26 Calm 30.21 1023 10 16 0.00 0.00
2:58 am 02:58 Clear 31 -0.7 -3 -19.2 23 23 WNW 6 9 29.91 1013 10 16 0.00 0.00
3:58 am 03:58 Clear 31 -0.3 -6 -20.9 20 20 W 3 6 29.91 1013 10 16 0.00 0.00
4:58 am 04:58 Clear 32 0.1 -4 -20.1 20 20 Calm 29.91 1013 10 16 0.00 0.00
5:58 am 05:58 Clear 33 0.4 -5 -20.3 20 20 WNW 8 13 29.92 1013 10 16 0.00 0.00
6:58 am 06:58 Clear 34 1 -5 -20.7 18 18 WNW 8 13 29.93 1014 10 16 0.00 0.00
7:58 am 07:58 Sunny 40 4.6 -13 -24.8 10 10 NNW 7 11 29.89 1012 10 16 0.00 0.00
8:58 am 08:58 Sunny 42 5.5 -13 -24.9 9 9 N 8 13 29.89 1012 10 16 0.00 0.00
11:58 am 11:58 Sunny 47 8.4 -3 -19.5 12 12 ESE 5 7 29.84 1011 10 16 0.00 0.00
12:58 pm 12:58 Sunny 46 7.9 -4 -20 12 12 SE 8 13 29.84 1011 10 16 0.00 0.00
1:58 pm 13:58 Sunny 44 6.9 -2 -18.7 14 14 SE 9 15 29.83 1010 10 16 0.00 0.00
2:58 pm 14:58 Sunny 42 5.5 4 -15.6 20 20 SSE 7 11 29.83 1010 10 16 0.00 0.00
3:58 pm 15:58 Sunny 38 3.1 8 -13.6 28 28 Calm 29.88 1012 10 16 0.00 0.00
4:58 pm 16:58 Mostly Cloudy 39 3.8 6 -14.5 25 25 SSW 5 7 29.85 1011 10 16 0.00 0.00
5:58 pm 17:58 Mostly Cloudy 37 2.7 6 -14.4 27 27 Calm 29.84 1010 10 16 0.00 0.00
6:58 pm 18:58 Partly Cloudy 37 2.8 5 -15.2 25 25 Calm 29.83 1010 10 16 0.00 0.00
7:58 pm 19:58 Clear 37 2.9 4 -15.7 24 24 Calm 29.81 1010 10 16 0.00 0.00
8:58 pm 20:58 Clear 38 3.4 5 -15 25 25 WNW 3 6 29.80 1009 10 16 0.00 0.00
9:58 pm 21:58 Clear 42 5.3 4 -15.6 21 21 Calm 29.96 1015 10 16 0.00 0.00
10:58 pm 22:58 Clear 42 5.5 5 -14.8 22 22 NW 3 6 29.95 1014 10 16 0.00 0.00
11:58 pm 23:58 Partly Cloudy 42 5.4 6 -14.2 23 23 Calm 29.71 1006 10 16 0.00 0.00

Powered by AerisWeather